Temp
-16 -16 -16 -16 -16 -15 -14 -14 -13 -14 -13 -14 -13 -14 -14 -14 -14 -14 -14 -14 -14 -14 -14 -15 -15 -15 -15 -15 -14 -14 -14 -14 -14 -14 -14 -15 -15 -15 -15 -15 -15 -15 -15 -15
-15 -15 -15 -15 -15 -14 -14 -14 -14 -14 -14 -14 -15 -15 -15 -15 -14 -14 -14 -15 -15 -15 -15 -15 -15 -15 -15 -15 -14 -14 -15 -15 -15 -15 -15 -15 -15 -16 -16 -16 -16 -16 -16 -16
-15 -14 -14 -14 -15 -15 -15 -15 -14 -14 -14 -15 -15 -14 -14 -14 -14 -14 -14 -14 -14 -15 -15 -15 -14 -14 -15 -15 -15 -15 -15 -15 -15 -15 -16 -16 -16 -16 -16 -16 -16 -16 -16 -16
-14 -14 -13 -14 -14 -15 -14 -14 -14 -14 -14 -14 -14 -15 -15 -15 -15 -15 -15 -15 -15 -15 -15 -15 -15 -15 -15 -15 -15 -15 -15 -16 -16 -16 -16 -16 -16 -16 -16 -16 -16 -16 -16 -17
-13 -14 -13 -14 -14 -14 -14 -14 -14 -14 -14 -14 -14 -14 -14 -14 -15 -15 -14 -15 -15 -15 -15 -15 -15 -15 -15 -16 -16 -16 -16 -16 -16 -16 -17 -17 -17 -17 -17 -17 -17 -17 -17 -17
-14 -13 -13 -14 -14 -14 -14 -13 -14 -14 -14 -14 -14 -14 -14 -14 -14 -15 -15 -15 -15 -15 -15 -15 -15 -15 -16 -16 -16 -17 -17 -17 -17 -17 -18 -18 -18 -18 -18 -18 -18 -18 -18 -18
-15 -14 -13 -15 -15 -14 -14 -14 -14 -14 -14 -15 -15 -15 -15 -15 -15 -15 -15 -16 -16 -16 -16 -16 -16 -17 -17 -17 -17 -17 -17 -18 -18 -18 -18 -18 -19 -18 -19 -19 -19 -19 -19 -19
-16 -15 -14 -15 -15 -15 -15 -14 -14 -15 -15 -15 -15 -15 -15 -16 -16 -16 -16 -16 -17 -17 -17 -17 -17 -17 -17 -17 -18 -18 -18 -18 -19 -19 -19 -19 -19 -19 -19 -19 -19 -19 -19 -20
-16 -16 -16 -15 -15 -15 -15 -15 -15 -15 -15 -15 -15 -15 -15 -16 -16 -17 -17 -17 -17 -17 -18 -18 -18 -18 -18 -19 -19 -19 -19 -19 -20 -20 -20 -20 -20 -20 -20 -20 -20 -20 -20 -20
-17 -17 -17 -16 -16 -16 -16 -16 -15 -15 -15 -16 -16 -16 -17 -17 -17 -17 -17 -18 -18 -18 -18 -18 -18 -19 -19 -19 -19 -20 -20 -20 -20 -20 -21 -21 -21 -21 -21 -21 -21 -21 -21 -21
-16 -17 -18 -17 -18 -17 -17 -16 -16 -16 -16 -16 -16 -17 -17 -17 -18 -18 -18 -18 -19 -19 -19 -19 -19 -19 -20 -20 -20 -20 -21 -21 -21 -21 -22 -22 -22 -22 -21 -22 -21 -22 -22 -22
-16 -18 -18 -18 -18 -18 -17 -17 -17 -17 -17 -17 -17 -18 -18 -19 -19 -19 -19 -19 -19 -20 -20 -20 -20 -20 -21 -21 -21 -21 -22 -22 -22 -22 -22 -22 -22 -23 -23 -23 -23 -23 -22 -22
-18 -19 -18 -17 -17 -18 -18 -18 -18 -18 -18 -18 -18 -19 -19 -19 -20 -20 -20 -20 -20 -21 -21 -21 -21 -21 -21 -22 -22 -22 -22 -22 -23 -23 -23 -23 -23 -23 -23 -25 -24 -24 -24 -24
-20 -19 -18 -19 -18 -18 -18 -18 -18 -18 -18 -18 -19 -19 -20 -20 -20 -21 -21 -21 -21 -21 -22 -22 -22 -22 -22 -22 -22 -22 -23 -24 -24 -24 -24 -24 -24 -25 -24 -24 -24 -25 -27 -27
-20 -19 -18 -18 -19 -19 -19 -19 -19 -20 -20 -20 -20 -20 -21 -21 -21 -21 -21 -22 -22 -22 -22 -22 -22 -23 -22 -23 -24 -24 -24 -24 -24 -25 -25 -26 -26 -26 -26 -26 -26 -26 -27 -28
-19 -20 -20 -20 -20 -20 -20 -20 -20 -20 -21 -21 -21 -21 -22 -22 -22 -22 -22 -22 -22 -22 -23 -23 -23 -23 -24 -25 -25 -25 -25 -26 -26 -26 -27 -27 -28 -28 -28 -28 -28 -28 -28 -28
-21 -21 -22 -22 -22 -22 -22 -22 -22 -22 -22 -22 -23 -23 -23 -23 -23 -23 -23 -23 -23 -23 -24 -24 -24 -24 -25 -26 -26 -27 -27 -27 -28 -28 -29 -29 -29 -29 -29 -29 -29 -29 -29 -29
-23 -23 -23 -23 -23 -23 -23 -23 -23 -23 -23 -23 -23 -23 -24 -24 -24 -24 -24 -24 -24 -25 -25 -26 -26 -27 -27 -27 -28 -29 -29 -29 -30 -30 -30 -30 -30 -30 -30 -30 -30 -30 -30 -30
-25 -25 -25 -25 -24 -24 -24 -24 -24 -24 -24 -24 -24 -24 -24 -24 -24 -25 -25 -25 -26 -27 -28 -28 -28 -28 -29 -29 -30 -30 -30 -30 -30 -31 -31 -31 -31 -31 -31 -31 -31 -31 -31 -31
-26 -26 -25 -25 -25 -25 -25 -25 -25 -25 -25 -25 -25 -25 -25 -25 -26 -26 -27 -28 -28 -28 -29 -29 -29 -30 -30 -31 -31 -31 -31 -31 -32 -32 -32 -32 -31 -32 -32 -32 -32 -32 -32 -32
-27 -27 -27 -26 -26 -26 -26 -26 -26 -26 -26 -26 -26 -27 -27 -27 -28 -28 -28 -28 -30 -30 -30 -30 -31 -31 -31 -32 -32 -32 -32 -32 -32 -32 -32 -32 -32 -32 -32 -32 -32 -33 -34 -34
-28 -28 -28 -28 -27 -27 -27 -27 -27 -27 -27 -28 -28 -28 -28 -28 -28 -29 -29 -30 -31 -31 -31 -32 -32 -32 -32 -32 -32 -32 -32 -32 -33 -33 -33 -33 -33 -33 -33 -34 -34 -35 -35 -35
-29 -29 -29 -29 -29 -29 -29 -29 -29 -28 -28 -28 -28 -29 -29 -30 -30 -30 -31 -32 -31 -32 -32 -32 -32 -32 -33 -33 -33 -33 -33 -33 -33 -33 -33 -33 -33 -34 -35 -35 -35 -35 -35 -35
-29 -29 -29 -29 -29 -29 -29 -29 -29 -29 -30 -30 -30 -31 -31 -31 -31 -32 -32 -32 -32 -32 -33 -33 -33 -33 -33 -33 -33 -34 -34 -34 -34 -34 -33 -34 -35 -35 -36 -36 -36 -36 -36 -36
-30 -30 -30 -30 -30 -30 -30 -30 -30 -30 -31 -31 -31 -32 -32 -32 -32 -32 -33 -33 -33 -33 -33 -33 -33 -33 -34 -34 -34 -34 -34 -34 -34 -35 -35 -35 -36 -36 -36 -36 -36 -36 -36 -36
-31 -32 -32 -32 -32 -32 -31 -32 -32 -32 -32 -32 -32 -33 -33 -33 -33 -33 -33 -33 -33 -33 -34 -34 -34 -34 -34 -34 -34 -34 -35 -36 -35 -36 -36 -36 -36 -36 -36 -36 -37 -37 -37 -37
-33 -33 -33 -33 -33 -33 -33 -33 -33 -33 -33 -33 -33 -33 -33 -34 -34 -34 -34 -34 -34 -34 -34 -34 -34 -34 -35 -35 -36 -36 -35 -36 -36 -36 -36 -36 -36 -36 -36 -36 -37 -37 -37 -37
Height
5697 5698 5698 5698 5699 5701 5704 5709 5708 5715 5714 5718 5718 5721 5722 5724 5725 5726 5727 5728 5728 5728 5728 5728 5727 5727 5727 5727 5725 5722 5720 5717 5715 5712 5709 5706 5704 5702 5699 5695 5693 5690 5687 5685
5697 5697 5698 5700 5701 5701 5703 5705 5707 5709 5711 5715 5714 5713 5715 5716 5716 5718 5719 5719 5719 5719 5719 5718 5718 5717 5716 5713 5711 5709 5706 5704 5701 5699 5698 5694 5693 5690 5687 5685 5682 5679 5676 5674
5696 5695 5696 5698 5699 5699 5701 5701 5701 5702 5709 5705 5704 5706 5707 5707 5708 5709 5708 5708 5708 5707 5707 5706 5705 5704 5702 5700 5697 5695 5693 5691 5689 5686 5684 5682 5680 5677 5675 5672 5669 5667 5664 5662
5693 5692 5692 5696 5695 5693 5693 5694 5694 5696 5698 5697 5696 5696 5697 5698 5699 5698 5697 5696 5695 5694 5694 5693 5691 5690 5688 5685 5683 5682 5679 5677 5675 5672 5670 5668 5666 5664 5662 5659 5657 5654 5652 5649
5685 5685 5688 5690 5688 5687 5686 5690 5686 5687 5687 5687 5686 5685 5688 5686 5685 5686 5686 5685 5685 5684 5682 5680 5678 5676 5674 5672 5670 5668 5665 5663 5661 5659 5657 5654 5652 5650 5648 5645 5643 5639 5637 5634
5677 5675 5674 5683 5682 5678 5677 5677 5678 5675 5675 5675 5675 5675 5673 5672 5673 5673 5673 5672 5671 5669 5667 5665 5664 5662 5660 5658 5656 5654 5651 5649 5647 5644 5642 5640 5638 5635 5632 5629 5626 5623 5621 5618
5665 5663 5663 5672 5668 5668 5668 5671 5666 5665 5663 5662 5662 5662 5662 5662 5661 5661 5659 5658 5657 5655 5653 5651 5649 5647 5645 5643 5641 5639 5637 5635 5632 5630 5628 5625 5623 5620 5617 5614 5611 5608 5604 5600
5653 5651 5651 5654 5655 5656 5655 5653 5652 5651 5651 5652 5650 5648 5647 5646 5646 5645 5645 5643 5641 5639 5638 5636 5634 5632 5630 5628 5626 5623 5621 5619 5617 5615 5612 5609 5606 5603 5600 5598 5594 5590 5586 5582
5640 5640 5640 5639 5637 5636 5637 5637 5636 5636 5637 5636 5636 5635 5634 5633 5631 5629 5628 5627 5625 5623 5622 5620 5618 5616 5614 5612 5610 5607 5605 5603 5601 5598 5595 5593 5590 5586 5582 5579 5576 5572 5568 5565
5624 5627 5625 5624 5622 5621 5620 5618 5618 5619 5619 5619 5618 5619 5619 5618 5616 5615 5613 5610 5609 5607 5605 5603 5601 5600 5598 5596 5594 5591 5588 5586 5584 5581 5578 5575 5572 5568 5564 5560 5557 5553 5549 5545
5609 5610 5612 5610 5608 5606 5604 5602 5601 5601 5602 5602 5602 5602 5600 5599 5598 5597 5595 5594 5593 5591 5589 5587 5586 5584 5582 5580 5577 5574 5571 5568 5566 5563 5560 5556 5552 5549 5545 5540 5537 5532 5526 5523
5593 5593 5590 5592 5592 5590 5589 5587 5586 5585 5584 5583 5583 5584 5583 5582 5581 5580 5579 5577 5576 5574 5572 5571 5569 5568 5566 5564 5561 5557 5554 5551 5548 5544 5540 5537 5533 5528 5523 5520 5514 5509 5505 5502
5578 5573 5575 5575 5575 5574 5573 5573 5571 5570 5569 5568 5567 5568 5565 5565 5564 5563 5562 5560 5558 5557 5556 5554 5552 5550 5549 5547 5544 5541 5537 5533 5528 5524 5519 5515 5511 5508 5505 5497 5493 5489 5482 5477
5559 5558 5559 5558 5558 5555 5555 5553 5553 5553 5552 5551 5550 5549 5549 5548 5547 5546 5545 5543 5542 5541 5539 5538 5535 5532 5533 5530 5525 5521 5517 5513 5508 5504 5500 5495 5491 5487 5483 5481 5478 5473 5461 5455
5540 5539 5541 5542 5541 5539 5537 5536 5535 5534 5534 5533 5532 5531 5531 5531 5531 5530 5529 5528 5526 5525 5522 5520 5516 5512 5513 5509 5505 5501 5497 5493 5489 5485 5480 5476 5471 5467 5463 5459 5455 5451 5447 5439
5523 5522 5522 5523 5522 5521 5520 5519 5519 5518 5517 5517 5517 5516 5515 5514 5514 5513 5511 5510 5508 5506 5503 5501 5497 5493 5494 5490 5486 5482 5478 5474 5471 5468 5462 5457 5452 5447 5442 5437 5433 5428 5424 5418
5503 5503 5503 5504 5503 5504 5503 5502 5501 5501 5501 5501 5501 5500 5499 5498 5497 5496 5494 5492 5490 5488 5484 5482 5478 5476 5473 5470 5466 5463 5460 5457 5453 5449 5444 5439 5435 5429 5424 5417 5412 5407 5403 5396
5484 5484 5485 5485 5485 5486 5485 5485 5485 5484 5484 5484 5484 5483 5482 5482 5480 5479 5477 5476 5473 5469 5464 5461 5459 5457 5455 5451 5448 5446 5444 5441 5436 5432 5427 5422 5416 5410 5404 5398 5392 5386 5381 5374
5468 5468 5470 5469 5469 5469 5469 5468 5467 5466 5466 5466 5466 5466 5465 5464 5462 5461 5460 5458 5454 5451 5445 5445 5444 5442 5439 5434 5432 5430 5427 5424 5420 5415 5408 5403 5398 5392 5386 5379 5373 5366 5358 5350
5453 5454 5453 5454 5454 5454 5453 5452 5452 5451 5450 5450 5449 5448 5447 5445 5443 5441 5441 5440 5436 5434 5431 5428 5428 5426 5423 5419 5415 5413 5410 5407 5402 5397 5391 5385 5379 5373 5366 5360 5352 5344 5336 5328
5438 5438 5438 5438 5439 5439 5439 5438 5437 5435 5434 5434 5432 5431 5429 5428 5427 5426 5426 5425 5418 5417 5417 5415 5412 5410 5407 5404 5401 5398 5394 5389 5384 5379 5372 5365 5359 5352 5346 5338 5331 5322 5315 5309
5425 5424 5423 5423 5423 5423 5423 5422 5421 5419 5419 5418 5417 5415 5415 5413 5411 5410 5409 5409 5405 5402 5402 5400 5397 5393 5391 5388 5385 5381 5377 5371 5365 5359 5353 5346 5339 5332 5324 5316 5310 5304 5298 5294
5412 5412 5411 5410 5409 5408 5408 5406 5406 5406 5405 5403 5402 5400 5399 5398 5396 5395 5395 5391 5390 5387 5386 5385 5381 5377 5373 5370 5367 5363 5358 5352 5346 5340 5333 5326 5318 5311 5305 5299 5293 5289 5285 5281
5400 5399 5398 5398 5397 5396 5393 5392 5393 5392 5390 5389 5388 5385 5384 5383 5383 5380 5378 5377 5375 5373 5371 5369 5365 5361 5356 5353 5348 5343 5338 5333 5327 5320 5313 5306 5300 5294 5289 5285 5280 5276 5273 5269
5389 5387 5386 5385 5384 5382 5381 5379 5380 5377 5376 5375 5373 5371 5369 5367 5366 5366 5362 5360 5357 5354 5353 5350 5345 5340 5336 5332 5327 5323 5318 5312 5306 5300 5295 5290 5285 5280 5276 5272 5268 5265 5261 5258
5376 5375 5373 5372 5370 5369 5367 5366 5365 5363 5360 5359 5359 5356 5353 5350 5347 5346 5343 5341 5338 5334 5332 5329 5325 5320 5315 5311 5307 5303 5298 5294 5289 5285 5280 5277 5272 5268 5264 5260 5257 5254 5250 5247
5364 5363 5361 5359 5356 5354 5352 5351 5350 5349 5345 5343 5343 5341 5337 5334 5330 5327 5324 5322 5319 5315 5311 5308 5303 5298 5294 5292 5289 5285 5282 5279 5275 5272 5269 5265 5261 5257 5254 5251 5248 5244 5241 5238
Wind_Speed
1 2 4 8 11 15 22 24 31 24 33 31 37 37 39 40 40 42 43 43 43 44 45 45 45 45 44 46 49 52 53 54 55 54 51 44 44 45 45 44 44 44 44 44
9 8 9 8 10 13 16 20 22 26 29 30 35 37 39 40 42 42 43 44 44 45 46 48 49 50 51 51 52 53 55 54 49 46 47 46 47 46 46 45 45 46 47 48
10 14 15 11 15 18 19 21 23 26 22 33 37 40 41 43 43 44 46 48 49 50 51 51 51 52 54 54 55 53 49 48 48 49 49 48 49 49 48 47 47 46 46 46
18 20 17 13 18 25 26 26 29 29 29 34 38 41 42 43 45 46 48 49 50 51 52 53 54 55 54 52 49 49 50 50 51 51 51 50 49 49 48 48 48 48 48 48
28 26 24 19 22 27 32 28 33 33 37 38 40 43 42 46 48 48 50 52 53 54 53 52 50 50 50 51 51 52 52 51 51 51 51 50 48 47 47 48 50 50 50 50
35 36 36 24 26 32 35 35 35 40 40 41 42 42 45 45 46 47 49 50 50 50 51 52 53 54 54 54 53 52 51 51 51 50 49 49 50 52 53 53 53 53 54 55
41 44 43 34 36 37 38 38 40 42 44 45 45 46 47 49 50 50 50 50 51 52 52 52 52 52 52 52 53 53 53 53 52 52 53 55 56 55 54 54 55 56 57 56
47 49 49 46 45 43 44 44 46 46 46 47 48 49 50 49 50 51 51 51 51 51 52 53 53 53 53 54 53 53 54 55 56 57 57 56 56 55 55 56 57 57 58 59
50 51 50 51 52 52 50 51 53 53 52 52 52 52 53 52 51 51 52 53 53 53 53 53 54 54 55 55 56 57 58 58 59 59 58 56 56 58 59 59 60 61 62 62
50 49 51 54 56 57 58 58 58 58 58 58 58 57 55 55 55 55 56 56 57 57 58 59 59 60 60 60 59 59 59 59 59 59 59 58 59 60 60 62 63 63 64 64
50 49 48 51 54 58 61 62 63 63 62 61 61 60 60 60 60 59 58 58 57 57 57 58 58 59 59 59 59 58 58 59 60 60 60 61 61 63 64 65 65 66 66 67
52 50 52 52 54 58 60 62 62 63 65 66 63 61 62 62 62 62 61 60 59 59 58 57 57 58 57 56 56 57 58 59 60 61 61 62 64 65 66 66 67 68 69 69
52 53 55 57 57 56 57 59 62 65 66 68 66 64 65 63 61 60 59 59 58 57 56 56 56 57 56 57 57 59 61 61 62 63 64 65 65 66 65 66 68 70 71 73
53 56 56 55 57 59 58 58 58 60 62 64 65 64 62 61 59 58 56 56 56 56 57 57 58 58 59 61 62 61 61 63 64 65 65 65 65 66 67 68 68 68 68 69
61 61 60 60 60 61 62 62 60 58 58 58 58 57 56 56 57 56 55 55 56 57 59 60 61 63 63 61 61 62 64 64 64 63 64 64 66 66 67 68 69 69 69 69
68 67 66 66 65 63 63 63 62 61 59 57 55 53 52 52 52 54 56 57 59 61 62 62 62 63 61 61 63 63 63 62 62 62 62 64 65 66 67 69 69 70 72 73
74 72 69 67 65 63 62 61 60 59 57 56 54 53 53 53 55 56 57 58 59 59 60 60 60 61 61 60 61 60 59 59 60 61 62 64 65 67 68 70 71 73 75 77
68 69 69 67 65 63 62 62 61 60 59 57 55 54 54 55 56 58 58 58 58 57 57 57 57 57 58 58 57 56 56 56 58 60 62 64 66 68 70 73 75 77 78 77
54 53 52 53 54 54 55 54 52 51 50 50 51 52 53 54 56 58 57 54 51 50 54 56 56 56 54 54 54 54 55 57 59 61 63 65 68 70 73 75 77 78 77 76
43 45 48 50 48 47 47 48 49 50 50 49 48 48 50 52 52 50 48 47 50 52 54 53 53 52 52 51 52 54 56 59 61 63 66 69 71 73 74 76 77 77 73 68
39 42 43 45 45 46 47 49 50 48 47 48 48 47 47 47 48 49 50 50 49 50 50 49 48 48 49 52 54 56 58 61 64 66 69 71 73 74 75 75 72 66 60 56
34 39 41 44 45 46 47 45 44 44 45 47 48 48 48 49 50 50 49 47 45 46 46 46 48 51 53 55 58 61 63 65 67 69 72 73 74 75 72 65 59 55 50 48
41 39 33 34 36 37 38 40 43 44 46 48 49 49 49 48 46 47 46 45 48 50 50 52 54 56 59 62 64 65 67 69 71 72 73 74 71 65 60 54 50 46 44 42
37 36 36 38 40 42 42 43 42 43 44 46 47 47 48 48 48 48 49 50 51 53 54 56 59 62 65 65 67 69 70 71 73 73 71 64 59 52 47 46 43 40 39 38
37 38 38 38 39 41 42 44 44 45 47 47 47 47 48 49 50 50 52 53 55 57 58 59 62 64 67 69 70 71 72 70 66 60 55 49 46 45 43 41 38 38 38 36
35 35 35 37 39 40 42 44 44 44 46 47 47 48 49 51 52 54 56 58 60 62 63 64 67 70 72 71 67 61 56 53 50 45 44 42 40 38 37 36 35 35 34 35
35 36 36 37 40 43 44 45 46 47 49 51 51 51 53 55 56 59 60 62 65 68 70 70 68 63 58 54 51 51 47 41 41 40 38 38 37 36 34 32 31 31 32 34
Wind_Direction
339 308 233 211 207 218 220 220 221 218 223 226 230 232 236 239 242 245 248 251 254 257 261 266 271 276 281 284 286 286 287 288 288 290 291 292 292 292 293 294 294 295 296 297
282 252 235 240 241 223 227 235 236 237 237 239 244 242 243 245 249 252 256 259 262 266 270 272 275 280 280 280 281 282 284 285 286 286 288 290 291 292 292 292 292 293 293 293
269 274 266 251 250 253 247 244 244 243 239 238 248 248 250 251 253 257 261 263 266 269 271 275 276 278 280 282 283 283 284 284 286 287 289 289 289 290 291 291 291 291 291 291
277 268 264 262 248 256 255 249 253 250 246 245 248 254 257 258 259 260 263 265 267 270 273 275 276 277 278 279 279 281 282 283 284 285 287 287 288 288 289 289 289 289 289 289
276 272 270 261 254 256 259 256 261 259 257 254 253 255 258 260 260 262 264 267 270 273 274 274 274 275 276 277 279 280 281 282 282 282 283 283 283 284 285 287 288 289 288 289
273 271 269 264 263 260 259 260 260 262 259 260 260 260 257 260 262 264 266 267 269 270 271 272 274 276 278 278 278 278 278 278 279 280 281 283 284 285 287 287 288 289 290 290
266 268 268 275 270 265 265 266 261 262 263 264 264 264 263 264 266 267 267 269 270 271 272 272 273 274 274 275 276 277 278 278 279 279 280 281 283 284 285 287 288 289 290 290
265 267 268 267 268 269 266 265 265 265 265 266 266 266 267 267 268 269 269 269 269 269 270 270 271 271 272 273 274 275 275 275 277 278 280 282 284 285 285 287 288 289 290 291
263 264 265 268 268 266 264 263 264 265 267 267 267 268 269 270 270 269 269 270 270 269 270 270 270 270 271 271 272 274 276 278 279 279 281 283 285 286 288 289 289 290 291 290
265 266 265 263 263 266 267 265 263 264 265 267 268 270 272 272 271 271 270 270 270 271 271 271 271 273 275 277 277 276 277 279 281 283 284 286 287 288 289 289 290 289 288 288
270 270 268 264 264 264 264 265 267 269 269 269 269 269 270 271 272 272 273 273 273 273 272 273 273 273 272 273 275 277 279 281 283 285 287 288 289 289 288 288 288 287 287 287
272 278 272 268 265 262 262 263 265 266 267 269 270 271 270 270 271 272 273 274 273 273 272 272 271 272 274 275 277 279 282 284 287 289 289 288 287 286 287 286 287 287 286 286
277 276 275 273 273 272 270 268 266 267 270 271 273 273 272 272 273 272 271 271 271 271 272 272 273 274 276 280 283 285 287 289 288 286 286 285 286 285 285 287 288 288 289 289
273 272 273 275 274 273 273 271 269 268 268 270 271 271 272 272 272 272 272 272 272 273 274 276 279 281 283 284 285 286 285 284 284 284 285 285 285 286 286 286 287 289 292 293
271 270 269 270 271 271 271 272 273 273 272 272 272 271 271 271 271 272 272 272 273 276 278 279 279 280 283 285 284 283 282 283 284 284 285 285 287 288 289 290 291 292 293 294
263 266 268 269 270 271 271 272 272 272 272 272 273 272 271 269 268 268 269 272 273 274 276 278 280 282 283 281 280 281 282 283 284 285 287 288 289 291 293 294 295 296 296 296
263 265 267 268 268 270 271 271 271 271 272 272 270 268 268 269 270 271 271 271 273 276 279 280 278 278 279 280 280 281 282 284 285 287 288 289 291 294 296 298 298 298 298 298
265 267 269 272 273 274 275 274 274 273 272 271 269 268 269 270 270 271 273 277 279 278 275 274 276 278 278 278 279 281 283 284 286 288 290 293 296 298 298 298 299 299 298 297
269 272 272 272 271 270 269 267 266 264 265 266 268 271 272 274 275 277 277 275 273 274 273 275 275 276 278 279 280 282 284 286 289 293 295 296 296 297 297 297 297 298 299 299
263 263 262 262 263 266 269 271 273 274 277 279 280 279 277 275 275 274 274 275 273 272 272 274 276 277 278 280 282 284 288 291 294 295 295 295 295 296 297 299 299 299 300 298
265 265 266 265 264 264 266 269 271 272 275 274 273 272 272 273 273 274 274 273 273 272 273 275 277 278 278 280 284 289 292 293 293 294 296 297 298 299 300 300 300 299 297 296
266 263 260 259 260 262 265 269 271 272 273 274 273 273 273 272 272 272 273 274 273 275 277 277 278 279 281 285 289 290 291 293 296 297 298 299 300 301 300 299 298 296 296 296
291 292 289 283 280 277 274 271 270 272 273 274 274 272 271 272 273 274 274 275 275 276 278 279 281 284 285 286 288 290 293 295 297 298 299 300 300 298 298 298 298 297 297 296
288 283 279 276 274 273 273 274 274 274 274 273 272 273 273 273 274 276 276 277 277 277 278 278 278 280 283 287 289 292 294 295 296 297 298 298 298 299 298 299 297 296 297 297
273 272 272 272 273 273 274 274 275 275 274 274 274 274 275 275 276 275 277 277 278 279 281 283 286 287 289 290 291 292 293 294 295 296 298 299 300 299 298 297 294 295 297 298
274 274 276 277 277 277 278 277 276 277 277 277 278 279 279 279 280 281 282 283 284 285 286 286 287 289 290 290 291 291 292 293 296 297 299 300 300 299 300 297 295 296 298 299
279 279 278 279 280 278 278 278 278 278 279 279 279 278 277 278 278 280 281 283 284 285 286 288 288 288 288 289 290 291 291 292 295 298 301 303 302 301 302 302 300 298 298 298